Weather in Gusikha

Russia / Republic of Buryatia     53°25′55″N   109°15′42″E
temp.,
°C
wind,
m/s
gust,
m/s
humid.,
%
clouds,
%
prec.,
mm/h
press.,
hPa
HPBL,
m
2 december, thu
thu223:00−6nw8156240 0.1 10161239
02:00−8nw8156247 0.1 10181114
05:00−10wnw5116736 0.0 1020665
08:00−12nw38759 0.0 1022240
11:00−10nw247985 0.0 1023217
14:00−9nw137450 0.0 1023410
17:00−16n219242 0.0 102417
20:00−17nne119487 0.0 102415
3 december, fri
fri323:00−16nne119481 0.1 102312
02:00−16ne119787 0.2 102313
05:00−13ne219778 0.3 102224
08:00−15ene229780 0.3 102334
11:00−10ene129194 0.2 102392
14:00−5ene019399 0.8 1021133
17:00−9ene119859 0.2 102218
20:00−11ene2198100 0.2 102213
4 december, sat
sat423:00−10ene229758 0.0 102224
02:00−11ene229421 0.0 102129
05:00−11ene339158 0.0 101948
08:00−12e34898 0.0 101860
11:00−8e34826 0.0 1016110
14:00−7ene248356 0.0 1013108
17:00−11ne1192100 0.0 101713
20:00−12ne219349 0.0 101917
5 december, sun
sun523:00−9sse119880 0.1 101929
02:00−9n1295100 0.2 102026
05:00−4w2684100 0.0 1020183
08:00−5wsw2694100 0.3 1022156
11:00−4w597439 0.2 1023763
14:00−6w4874100 0.3 10251098
17:00−8w497894 0.2 1028533
20:00−9w488091 0.2 1029539
6 december, mon
mon623:00−9w398398 0.1 1029584
02:00−10nw139294 0.1 102974
05:00−10n1295100 0.1 102869
08:00−8nne119786 1.0 102632
11:00−7nw01927 0.1 102574
14:00−5wnw118026 0.1 1022221
17:00−11ne119437 0.0 102312
20:00−12ne119633 0.0 102412